Torna al catalogo

STARLINK-1357

AttivoComunicazioniVLEO
NORAD 45565·PAYLOAD·🇺🇸 United States

Lanciato Apr 22, 2020 da Cape Canaveral Space Force Station

Loading…

Prossimi Passaggi (prossime 24 ore)

TLE

AggiornatoSource: CelesTrak SupGP

Epoca: Sep 14, 2026, 21:21 UTC

1 45565C 20025AL  26257.89006944  .00086871  00000+0  38787-3 0  2578
2 45565  53.0355 182.4123 0007284  96.7901 192.9454 15.83442924    19

Traccia STARLINK-1357 in tempo reale con AllMySat

Download on the App Store